Regional Weather Roundup
Issued by NWS

Home | Current Version | Previous Version | Text Only | Print | Product List | Glossary On
Versions: 1 2 3 4 5 6 7 8 9 10 11 12 13 14 15 16 17 18 19 20 21 22 23 24 25 26 27 28 29 30 31 32 33 34 35 36 37 38 39 40 41 42 43 44 45 46 47 48 49 50
000
ASUS43 KMKX 032211
RWRWI

WISCONSIN REGIONAL WEATHER ROUNDUP
NATIONAL WEATHER SERVICE MILWAUKEE/SULLIVAN WI
400 PM CST SAT DEC 03 2016

NOTE: "FAIR" INDICATES FEW OR NO CLOUDS BELOW 12,000 FEET WITH NO
SIGNIFICANT WEATHER AND/OR OBSTRUCTIONS TO VISIBILITY.

WIZ001-002-006>008-014>016-023>028-032300-
NORTHWEST WISCONSIN

CITY           SKY/WX    TMP DP  RH WIND       PRES   REMARKS
SUPERIOR ARPT  CLOUDY    32  21  63 SE3       30.22F
ASHLAND        CLOUDY    31  24  75 SW3       30.24S
HAYWARD        CLOUDY    30  22  72 S3        30.22S
SIREN          CLOUDY    30  21  69 S6        30.22F WCI  24
CUMBERLAND     CLOUDY    30  21  69 S8        30.22S WCI  23
RICE LAKE      CLOUDY    30  23  74 S7        30.25S WCI  23
CHETEK         CLOUDY    30  23  77 S7        30.25R WCI  23
LADYSMITH      CLOUDY    31  25  78 CALM      30.25S
EAU CLAIRE     CLOUDY    31  21  66 S7        30.26S WCI  24
MENOMONIE      CLOUDY    31  22  69 SE7       30.26R WCI  24
NEW RICHMOND   CLOUDY    30  20  67 S13       30.24R WCI  20
OSCEOLA        CLOUDY    31  22  68 S10       30.27R WCI  22
$$

WIZ003>005-009-010-017-018-032300-
NORTH CENTRAL WISCONSIN

CITY           SKY/WX    TMP DP  RH WIND       PRES   REMARKS
MANITOWISH WTR CLOUDY    28  22  79 SE3       30.21R
ARBOR VITAE    CLOUDY    32  26  79 CALM      30.21S
WOODRUFF       CLOUDY    32  26  79 CALM      30.21S
RHINELANDER    CLOUDY    28  21  75 VRB3      30.23R
EAGLE RIVER    CLOUDY    28  20  69 CALM      30.21S
LAND O LAKES   CLOUDY    29  23  76 CALM      30.22S
PHILLIPS       CLOUDY    28  23  84 S3        30.22S
TOMAHAWK       CLOUDY    28  20  72 CALM      30.23F
MEDFORD        CLOUDY    28  20  72 S3        30.22F
MERRILL        CLOUDY    29  20  71 CALM      30.25S
$$

WIZ029-030-035-036-043>047-032300-
CENTRAL WISCONSIN

CITY           SKY/WX    TMP DP  RH WIND       PRES   REMARKS
WAUSAU         CLOUDY    29  20  69 W5        30.23F WCI  24
MOSINEE        NOT AVBL
MARSHFIELD     CLOUDY    29  20  69 W3        30.24F
STEVENS POINT  CLOUDY    28  21  73 SW3       30.27F
WAUPACA        CLOUDY    33  24  69 CALM      30.29S
WAUTOMA        CLOUDY    30  22  72 NW3       30.29S
WISC RAPIDS    CLOUDY    30  21  69 W3        30.28F
CAMP DOUGLAS   CLOUDY    32  20  62 SW3       30.27
$$

WIZ011>013-019>022-031-037>040-048>050-032300-
NORTHEAST WISCONSIN

CITY           SKY/WX    TMP DP  RH WIND       PRES   REMARKS
ANTIGO         CLOUDY    27  21  79 CALM      30.24S
SHAWANO        CLOUDY    33  22  65 W3        30.28F
OCONTO         CLOUDY    32  22  68 SW3       30.28F
STURGEON BAY   CLOUDY    32  24  72 SW9       30.28F WCI  24
GREEN BAY      CLOUDY    33  24  69 W7        30.29S WCI  27
MANITOWOC      CLOUDY    33  22  63 MISG      30.30S
APPLETON       CLOUDY    30  21  69 VRB3      30.26S
CLINTONVILLE   CLOUDY    32  23  69 CALM      30.28F
OSHKOSH        CLOUDY    31  23  72 SW7       30.29S WCI  24
$$

WIZ032>034-041-042-053>061-032300-
SOUTHWEST WISCONSIN

CITY           SKY/WX    TMP DP  RH WIND       PRES   REMARKS
LA CROSSE      CLOUDY    35  23  61 S6        30.28R WCI  30
SPARTA         CLOUDY    32  23  70 CALM      30.28R
VIROQUA        CLOUDY    31  26  80 S5        30.25S WCI  26
BOSCOBEL       CLOUDY    35  25  66 S3        30.29F
PRAIRIE DU CHI CLOUDY    35  25  67 E5        30.28S WCI  31
PLATTEVILLE    CLOUDY    34  28  80 S3        30.28F
$$

WIZ056-057-062-063-064-067-068-032300-
SOUTH CENTRAL WISCONSIN

CITY           SKY/WX    TMP DP  RH WIND       PRES   REMARKS
REEDSBURG      CLOUDY    32  24  72 S5        30.28S WCI  27
BARABOO/DELLS  CLOUDY    32  22  67 CALM      30.27F
LONE ROCK      CLOUDY    33  24  69 CALM      30.30S
MINERAL POINT  CLOUDY    34  28  80 CALM      30.27F
MADISON        CLOUDY    33  23  66 CALM      30.29S
MIDDLETON      CLOUDY    33  24  69 W3        30.29S
WATERTOWN      CLOUDY    31  24  74 CALM      30.30S
MONROE         CLOUDY    32  27  80 W7        30.28S WCI  26
JANESVILLE     CLOUDY    36  25  64 SW7       30.30S WCI  30
$$

WIZ051-052-058>065-066-070>072-032300-
SOUTHEAST WISCONSIN

CITY           SKY/WX    TMP DP  RH WIND       PRES   REMARKS
MILWAUKEE      CLOUDY    33  21  61 W7        30.32R WCI  27
WAUKESHA       CLOUDY    28  21  74 W5        30.32R WCI  23
MILWAUKEE/TIMM CLOUDY    30  19  64 SW6       30.33R WCI  24
RACINE         CLOUDY    32  22  66 W3        30.33S
BURLINGTON     CLOUDY    31  24  72 CALM      30.31S
KENOSHA        CLOUDY    31  23  72 CALM      30.32S
FOND DU LAC    CLOUDY    31  20  63 W5        30.30R WCI  26
SHEBOYGAN      CLOUDY    32  22  66 W3        30.30S
WEST BEND      CLOUDY    32  23  69 W7        30.30S WCI  26
JUNEAU         CLOUDY    30  22  73 CALM      30.30F
$$

LSZ147-162-032300-
LAKE SUPERIOR

STATION/POSITION TIME  TEMP    WIND        PRES    WAVE
                       AIR SEA DIR/SP/G            HT/PER
                 (UTC) (F)     (DEG/KT/KT) (MB)    (FT/S)
DEVILS ISLAND    2200   33     200/  5/  6 1024.9F
PORT WING        2140   32     190/  3/  3 1024.0S
SAXON HARBOR     2140   33     180/  3/  6 1024.0S
$$

LMZ867-665-643>646-032300-
LAKE MICHIGAN

STATION/POSITION TIME  TEMP    WIND        PRES    WAVE
                       AIR SEA DIR/SP/G            HT/PER
                 (UTC) (F)     (DEG/KT/KT) (MB)    (FT/S)
CHAMBERS ISLAND  2140   35     240/  4/  7 1024.4F
NORTHPORT PIER   2140   36     260/  1/  4 1024.7F
SISTER BAY       2108   37     230/  9/ 11   N/A
ALGOMA LAKESHORE 2106          260/  8/  9   N/A
KEWAUNEE LAKESHO 2142   32     230/  5/  7 1025.3F
SHEBOYGAN LAKESH 2200   33     230/  7/  9 1026.7S
PORT WASHINGTON  2140   33     260/  5/  6 1027.4R
MILWAUKEE LAKESH 2150   32     290/  7/  9   N/A
S MID LAKE BUOY  2150   35 48  260/  6/ 14 1027.0R   1/ 3
KENOSHA   LAKESH 2200   32     260/  7/  8 1026.8
$$

TC  - TEMPERATURE IN CELSIUS
VSB - VISIBILITY IN STATUTE MILES
WCI - WIND CHILL INDEX
HX  - HEAT INDEX




USA.gov is the U.S. government's official web portal to all federal, state and local government web resources and services.